Location: Easter Hill Village
(37.9235°N, 122.3444°W)
Time: 20:52:07
(UTC+00:00)

Cosmos 773 Rocket - Pass Details

Date: 16 September 2019
Orbit: 746 x 776 km, 74.1° (Epoch: 12 October)

Event Time Altitude Azimuth Distance (km) Brightness Sun altitude
Exits shadow 12:27:33 - 189° (S) 3,053 6.8 -17.1°
Reaches altitude 10° 12:29:32 10° 187° (S) 2,281 6.2 -16.8°
Maximum altitude 12:34:40 67° 105° (ESE) 815 4.3 -15.8°
Drops below altitude 10° 12:39:47 10° 24° (NNE) 2,278 7.0 -14.8°
Sets 12:42:09 0° 22° (NNE) 3,203 7.8 -14.4°
